Location: Krakow
(50.0830°N, 19.9170°E)
Time: 13:00:57
(UTC+01:00)

Vanguard 1 Rocket - Visible Passes

Search period start: 04 December 2023 00:00
Search period end: 14 December 2023 00:00
Orbit: 656 x 4218 km, 34.3° (Epoch: 03 December)

Date Brightness Start Highest point End Pass type
(mag) Time Alt. Az. Time Alt. Az. Time Alt. Az.
04 Dec 11.5 02:17:09 10° S 02:29:46 18° SE 02:39:36 10° ESE visible
04 Dec 10.7 04:40:14 10° SW 04:57:11 33° SSE 05:07:35 10° ESE visible
05 Dec 11.7 01:11:02 10° SSE 01:16:48 11° SE 01:22:05 10° ESE visible
05 Dec 11.0 03:26:56 10° SSW 03:44:16 29° SSE 03:55:51 10° ESE visible
05 Dec 10.4 05:54:53 10° SW 06:11:28 38° S 06:20:55 10° ESE visible
06 Dec 11.3 02:15:16 10° S 02:31:07 23° SSE 02:43:06 10° ESE visible
06 Dec 10.6 04:40:19 10° SW 04:58:49 37° SSE 05:09:54 10° ESE visible
07 Dec 11.6 01:09:30 13° SSE 01:17:59 16° SE 01:28:22 10° ESE visible
07 Dec 10.9 03:26:54 11° SSW 03:45:44 34° SSE 03:58:19 10° ESE visible
07 Dec 10.4 05:55:34 10° WSW 06:13:08 41° S 06:23:03 10° ESE visible
08 Dec 11.1 02:20:39 19° S 02:32:24 28° SSE 02:45:56 10° E visible
08 Dec 10.5 04:40:38 10° SW 05:00:23 41° S 05:12:06 10° ESE visible
09 Dec 11.4 01:14:06 20° SSE 01:19:03 21° SE 01:32:12 10° E visible
09 Dec 10.8 03:31:26 18° SSW 03:47:09 38° SSE 04:00:37 10° ESE visible
09 Dec 10.3 05:56:22 10° WSW 06:14:43 42° S 06:25:05 10° ESE visible
10 Dec 11.6 00:07:19 14° SE 00:07:19 14° SE 00:15:25 10° ESE visible
10 Dec 11.0 02:24:38 26° S 02:33:37 33° SSE 02:48:24 10° E visible
10 Dec 10.5 04:41:57 11° WSW 05:01:53 44° S 05:14:11 10° ESE visible
11 Dec 11.2 01:17:39 26° SSE 01:20:04 27° SE 01:35:10 10° E visible
11 Dec 10.7 03:34:57 24° SW 03:48:30 42° SSE 04:02:45 10° ESE visible
11 Dec 10.4 05:57:15 10° WSW 06:16:14 43° SSW 06:27:02 10° SE visible
12 Dec 11.5 00:10:31 18° SE 00:10:31 18° SE 00:20:00 10° E visible
12 Dec 10.9 02:27:48 33° S 02:34:47 38° SSE 02:50:38 10° E visible
12 Dec 10.5 04:45:05 15° WSW 05:03:19 46° S 05:16:10 10° ESE visible
13 Dec 11.1 01:20:31 31° SSE 01:21:01 31° SSE 01:37:39 10° E visible
13 Dec 10.6 03:37:48 29° SW 03:49:49 46° S 04:04:45 10° ESE visible
13 Dec 10.4 05:58:13 10° WSW 06:17:38 42° SSW 06:28:52 10° SE visible
